Weather History for Glasgow, United Kingdom

Change the Weather History Date:

Monday, December 3, 2012

  Actual Average Record
Temperature  
Mean Temperature 36 °F -  
Max Temperature 39 °F 43 °F 51 °F (2006)
Min Temperature 32 °F 33 °F 8 °F (2010)
Degree Days  
Heating Degree Days 30    
Moisture  
Dew Point 34 °F    
Average Humidity 94    
Maximum Humidity 100    
Minimum Humidity 87    
Precipitation  
Precipitation 0.00 in - - ()
Sea Level Pressure  
Sea Level Pressure 29.55 in    
Wind  
Wind Speed 6 mph ()    
Max Wind Speed 13 mph    
Max Gust Speed -    
Visibility 4.5 miles    
Events Rain , Snow    
Averages and records for this station are not official NWS values.
T = Trace of Precipitation, MM = Missing Value Source: Averaged Metar Reports

Daily Weather History Graph

Daily Weather History Graph

Search for Another Location

Airport:

Trip Planner

Search our weather history database for the weather conditions in past years. The results will help you decide how hot, cold, wet, or windy it might be!

Date:

Astronomy

Dec. 03, 2012 Rise Set
Actual Time 8:27 AM GMT 3:47 PM GMT
Civil Twilight 7:41 AM GMT 4:33 PM GMT
Nautical Twilight 6:53 AM GMT 5:21 PM GMT
Astronomical Twilight 6:09 AM GMT 6:06 PM GMT
Moon 8:49 PM GMT (12/3) 11:17 AM GMT (12/3)
Length of Visible Light 8h 51m
Length of Day
7h 19m
Waning Gibbous, 80% of the Moon is Illuminated
Dec 3
Waning Gibbous
Dec 6
Last Quarter
Dec 13
New
Dec 20
First Quarter
Dec 28
Full

Hourly Weather History & Observations

Time (GMT) Temp. Windchill Dew Point Humidity Pressure Visibility Wind Dir Wind Speed Gust Speed Precip Events Conditions
12:20 AM 32.0 °F 24.2 °F 32.0 °F 100% 29.74 in 1.2 mi ENE 9.2 mph - N/A Snow Snow
12:50 AM 32.0 °F 24.8 °F 32.0 °F 100% 29.71 in 2.2 mi ENE 8.1 mph - N/A Rain , Snow Light Rain
1:20 AM 32.0 °F 24.8 °F 32.0 °F 100% 29.71 in 1.2 mi ENE 8.1 mph - N/A Rain , Snow Light Rain
1:50 AM 32.0 °F 24.8 °F 32.0 °F 100% 29.68 in 1.0 mi ENE 8.1 mph - N/A Rain Rain
2:20 AM 32.0 °F 24.8 °F 32.0 °F 100% 29.68 in - ENE 8.1 mph - N/A Rain Rain
2:50 AM 32.0 °F 24.8 °F 32.0 °F 100% 29.65 in 1.5 mi ENE 8.1 mph - N/A Rain Rain
3:20 AM 32.0 °F 24.8 °F 32.0 °F 100% 29.65 in 1.7 mi ENE 8.1 mph - N/A   Drizzle
3:50 AM 32.0 °F 26.4 °F 32.0 °F 100% 29.62 in 1.4 mi ENE 5.8 mph - N/A   Drizzle
4:20 AM 33.8 °F 28.6 °F 32.0 °F 93% 29.62 in 2.2 mi ENE 5.8 mph - N/A   Drizzle
4:50 AM 33.8 °F 28.6 °F 32.0 °F 93% 29.62 in - ENE 5.8 mph - N/A   Drizzle
5:20 AM 33.8 °F 29.6 °F 32.0 °F 93% 29.59 in 4.3 mi East 4.6 mph - N/A   Light Drizzle
5:50 AM 33.8 °F 30.8 °F 32.0 °F 93% 29.59 in 2.2 mi NE 3.5 mph - N/A Rain Light Rain
6:20 AM 33.8 °F - 32.0 °F 93% 29.59 in 2.2 mi Calm Calm - N/A Rain Light Rain
6:50 AM 32.0 °F - 32.0 °F 100% 29.56 in - Variable 2.3 mph - N/A   Light Drizzle
7:20 AM 32.0 °F 27.5 °F 32.0 °F 100% 29.59 in 2.2 mi West 4.6 mph - N/A   Light Drizzle
7:50 AM 32.0 °F - 32.0 °F 100% 29.56 in - Calm Calm - N/A   Light Drizzle
8:20 AM 32.0 °F - 32.0 °F 100% 29.56 in - North 2.3 mph - N/A   Light Drizzle
8:50 AM 32.0 °F 28.7 °F 32.0 °F 100% 29.56 in 1.9 mi Variable 3.5 mph - N/A   Light Drizzle
9:20 AM 32.0 °F 28.7 °F 32.0 °F 100% 29.56 in 1.4 mi Variable 3.5 mph - N/A   Light Drizzle
9:50 AM 33.8 °F 30.8 °F 32.0 °F 93% 29.53 in 2.5 mi Variable 3.5 mph - N/A   Mostly Cloudy
10:20 AM 33.8 °F - 32.0 °F 93% 29.53 in 1.4 mi Variable 2.3 mph - N/A   Mostly Cloudy
10:50 AM 33.8 °F 29.6 °F 32.0 °F 93% 29.53 in 6.2 mi NE 4.6 mph - N/A   Mostly Cloudy
11:20 AM 35.6 °F - 33.8 °F 93% 29.53 in 4.3 mi NE 2.3 mph - N/A Rain Light Rain
11:50 AM 37.4 °F 32.8 °F 35.6 °F 93% 29.53 in 4.3 mi WNW 5.8 mph - N/A Rain Light Rain
12:20 PM 37.4 °F 29.3 °F 35.6 °F 93% 29.53 in 5.0 mi West 12.7 mph - N/A Rain Light Rain
12:50 PM 37.4 °F 32.1 °F 33.8 °F 87% 29.53 in 6.2 mi WSW 6.9 mph - N/A Rain Light Rain
1:20 PM 37.4 °F 30.8 °F 35.6 °F 93% 29.50 in 6.2 mi WSW 9.2 mph - N/A Rain Light Rain
1:50 PM 37.4 °F 29.8 °F 35.6 °F 93% 29.50 in 6.2 mi WSW 11.5 mph - N/A   Scattered Clouds
2:20 PM 37.4 °F 30.8 °F 35.6 °F 93% 29.50 in 6.2 mi WSW 9.2 mph - N/A Rain Light Rain
2:50 PM 39.2 °F 33.6 °F 35.6 °F 87% 29.50 in 6.2 mi West 8.1 mph - N/A   Mostly Cloudy
3:20 PM 35.6 °F 28.6 °F 33.8 °F 93% 29.50 in 6.2 mi WSW 9.2 mph - N/A   Mostly Cloudy
3:50 PM 37.4 °F 30.8 °F 35.6 °F 93% 29.50 in 6.2 mi WSW 9.2 mph - N/A Rain Light Rain
4:20 PM 39.2 °F 33.6 °F 35.6 °F 87% 29.50 in 6.2 mi West 8.1 mph - N/A Rain Light Rain
4:50 PM 37.4 °F 32.1 °F 35.6 °F 93% 29.50 in 6.2 mi West 6.9 mph - N/A Rain Light Rain Showers
5:20 PM 37.4 °F 32.8 °F 35.6 °F 93% 29.50 in 6.2 mi West 5.8 mph - N/A Rain Light Rain Showers
5:50 PM 39.2 °F 35.0 °F 35.6 °F 87% 29.47 in 6.2 mi West 5.8 mph - N/A Rain Light Rain Showers
6:20 PM 39.2 °F 33.6 °F 35.6 °F 87% 29.47 in 6.2 mi West 8.1 mph - N/A Rain Light Rain
6:50 PM 39.2 °F 33.0 °F 35.6 °F 87% 29.47 in 6.2 mi NW 9.2 mph - N/A Rain Light Rain
7:20 PM 39.2 °F 35.9 °F 35.6 °F 87% 29.47 in 6.2 mi West 4.6 mph - N/A   Mostly Cloudy
7:50 PM 37.4 °F - 35.6 °F 93% 29.47 in 6.2 mi Variable 2.3 mph - N/A Rain Light Rain Showers
8:20 PM 37.4 °F 32.1 °F 35.6 °F 93% 29.50 in 6.2 mi West 6.9 mph - N/A   Mostly Cloudy
8:50 PM 37.4 °F - 35.6 °F 93% 29.47 in 6.2 mi Calm Calm - N/A   Mostly Cloudy
9:20 PM 35.6 °F 31.7 °F 33.8 °F 93% 29.47 in 6.2 mi West 4.6 mph - N/A   Scattered Clouds
9:50 PM 33.8 °F 28.6 °F 32.0 °F 93% 29.47 in 6.2 mi WSW 5.8 mph - N/A   Scattered Clouds
10:20 PM 35.6 °F 32.8 °F 33.8 °F 93% 29.47 in 6.2 mi West 3.5 mph - N/A   Partly Cloudy
10:50 PM 33.8 °F 28.6 °F 32.0 °F 93% 29.47 in 6.2 mi WNW 5.8 mph - N/A   Partly Cloudy
11:20 PM 33.8 °F 30.8 °F 32.0 °F 93% 29.50 in 6.2 mi Variable 3.5 mph - N/A   Partly Cloudy
11:50 PM 35.6 °F 32.8 °F 33.8 °F 93% 29.50 in 6.2 mi Variable 3.5 mph - N/A   Partly Cloudy